Lid_Strength_Index
1 1 1 3 7 7 9 7 5 6 6 4 4 4 5 5 7 10 1 0 -0 0 -1 -1 -1 -1 -1 -1 -1 -1 -1 -1 -1 -1 -1 -1 -1 -1 -1 -1 -1 -1 -1 -1 -1 -1 -1 -1 -1
1 2 3 4 8 10 9 6 6 5 4 4 3 4 4 6 3 3 2 0 -0 -0 -1 -1 -1 -1 -1 -1 -1 -1 -1 -1 -1 -1 -1 -1 -1 -1 -1 -1 -1 -1 -1 -1 -1 -1 -1 -1 -1
2 2 5 6 8 10 9 6 5 5 4 4 4 3 4 5 3 2 1 -0 -0 -0 -1 -1 -1 -1 -1 -1 -1 -1 -1 -1 -1 -1 -1 -1 -1 -1 -1 -1 -1 -1 -1 -1 -1 -1 -1 -1 -1
4 4 5 8 9 7 6 6 5 5 4 3 4 5 3 2 3 1 0 -0 -0 -0 -1 -1 -1 -1 -1 -1 -1 -1 -1 -1 -1 -1 -1 -1 -1 -1 -1 -1 -1 -1 -1 -1 -1 -1 -1 -1 -1
2 4 8 9 8 6 5 4 4 5 4 4 3 5 5 2 1 0 0 -0 0 -0 -1 -1 -1 -1 -1 -1 -1 -1 -1 -1 -1 -1 -1 -1 -1 -1 -1 -1 -1 -1 -1 -1 -1 -1 -1 -1 -1
5 4 8 9 9 7 5 4 4 5 4 4 4 4 4 2 1 1 0 0 -0 -0 -1 -1 -1 -1 -1 -1 -1 -1 -1 -1 -1 -1 -1 -1 -1 -1 -1 -1 -1 -1 -1 -1 -1 -1 -1 -1 -1
6 6 8 7 7 6 5 4 5 5 4 4 3 5 4 3 1 0 0 -0 -0 -0 -0 -1 -1 -1 -1 -1 -1 -1 -1 -1 -1 -1 -1 -1 -1 -1 -1 -1 -1 -1 -1 -1 -1 -1 -1 -1 -1
5 6 7 7 7 7 4 4 4 5 5 2 3 6 7 3 1 1 0 0 0 -0 -0 -0 -1 -1 -1 -1 -1 -1 -1 -1 -1 -1 -1 -1 -1 -1 -1 -1 -1 -1 -1 -1 -1 -1 -1 -1 -1
4 8 9 8 7 6 4 5 3 3 4 3 3 3 3 3 1 1 1 1 1 0 -0 -0 -0 -1 -1 -1 -1 -1 -1 -1 -1 -1 -1 -1 -1 -1 -1 -2 -2 -1 -1 -1 -1 -1 -1 -1 -2
7 9 9 6 5 5 4 4 4 4 5 5 4 3 2 2 2 2 2 2 2 1 0 -0 -0 -1 -1 -1 -1 -1 -1 -1 -1 -2 -2 -1 -2 -2 -2 -2 -2 -1 -1 -1 -1 -2 -2 -1 -1
7 9 7 6 5 4 4 4 4 4 6 4 5 4 3 3 3 2 2 2 2 1 0 0 -1 -1 -1 -0 -1 -1 -1 -1 -1 -2 -2 -2 -2 -2 -1 -1 -1 -1 -1 -1 -1 -1 -1 -1 -1
9 7 7 7 5 5 5 4 4 4 4 3 3 3 3 3 3 3 3 2 1 1 1 -0 -0 -1 -1 -1 -0 -1 -0 -1 -1 -1 -2 -2 -1 -1 -1 -1 -1 -1 -1 -1 -2 -1 -2 -2 -1
6 6 6 6 6 6 5 5 5 4 3 2 2 3 3 3 3 2 2 2 2 1 1 0 -0 -0 -1 -1 -1 -1 -1 -1 -1 -1 -1 -1 -1 -1 -1 -1 -1 -1 -1 -1 -1 -1 -1 -1 -1
5 5 5 5 6 6 7 6 4 4 3 3 3 3 3 3 3 2 2 3 3 3 1 0 -0 -0 -0 -0 -1 -1 -1 -1 -1 -1 -1 -1 -1 -1 -1 -1 -0 -1 -1 -1 -1 -1 -1 -0 -1
5 7 6 6 5 6 5 8 8 4 3 3 4 3 3 3 2 3 2 2 2 2 1 0 -0 -0 -0 -0 -1 -1 -1 -1 -0 -1 -2 -1 -1 -1 -1 -0 -0 -1 -1 -1 -1 -1 -1 -0 -0
7 7 9 6 6 6 5 10 7 4 4 4 3 4 3 3 2 3 2 1 0 2 2 0 0 -0 -0 -0 -0 -0 -0 -1 -1 -1 -1 -1 -1 -1 -1 -0 -0 -1 -1 -1 -0 0 1 1 0
7 10 9 8 5 6 7 9 6 4 4 4 4 3 4 3 3 2 2 1 1 1 1 1 -0 0 0 -0 -0 -0 -1 -0 -0 -1 -1 -1 -1 -1 -1 -0 -1 -1 -0 -0 -0 -0 -0 0 0
9 9 8 8 6 6 7 8 6 4 4 4 4 4 3 4 3 3 2 1 1 1 1 -0 0 -0 -1 -0 -0 -0 -0 -0 -0 -0 -0 -0 -1 -1 -1 -0 -1 -1 -0 0 -0 -0 -0 0 1
7 8 8 7 6 6 7 7 6 4 4 4 4 4 4 3 2 2 2 1 1 1 -0 -0 -0 -0 -0 1 1 1 1 0 0 -0 -1 -0 -1 -1 -0 0 -0 -0 0 -0 -1 -0 0 1 -0
7 8 8 7 6 6 7 7 6 5 5 4 4 4 4 3 3 2 3 2 1 1 0 1 0 -0 -0 0 0 0 0 0 -0 -0 -0 -0 -0 -1 -0 -0 -0 -1 -0 -0 -0 -0 1 1 -0
8 8 8 8 7 6 7 8 7 5 4 4 4 3 3 3 3 3 3 2 2 2 1 1 1 -0 0 -0 -0 -0 0 0 1 0 0 -0 -0 -0 -1 -0 -0 -1 -1 0 0 -0 0 2 0
9 6 7 8 9 11 7 12 8 6 6 5 4 4 3 3 3 3 2 2 2 2 1 -0 0 1 0 0 0 1 2 2 1 0 -0 0 -0 -0 -1 -1 -1 -1 -1 -1 -1 -0 -0 0 1
8 6 7 7 9 9 9 11 9 7 7 6 5 4 4 3 3 3 3 2 2 2 1 1 1 1 0 0 0 1 1 1 0 0 0 -1 -1 -1 -1 -1 -1 -1 -0 -1 -1 -1 -1 0 1
5 7 7 7 8 12 10 12 12 10 9 6 5 4 4 3 3 3 3 2 2 1 1 1 1 1 0 1 1 1 1 0 1 0 1 0 0 -0 -1 -1 -1 -1 -1 -1 -0 -1 -0 0 0
6 8 12 13 13 13 9 11 11 9 9 6 5 5 4 3 3 4 3 3 2 2 1 1 1 1 1 0 0 0 0 0 0 1 0 0 0 0 -1 -1 -1 -0 -1 -1 -1 -0 -0 0 1
8 8 12 16 15 13 9 12 10 7 6 5 5 4 4 4 3 3 3 2 2 2 1 1 1 1 0 0 0 0 -0 0 -0 0 1 1 0 -0 -1 -1 -1 -1 -1 -0 -0 0 0 -0 0
8 10 7 11 11 13 11 9 7 6 6 6 5 5 5 4 4 3 3 2 2 2 1 1 1 1 1 0 0 -0 -0 -0 0 -0 -1 0 -1 -0 -1 -1 -1 -1 -0 -0 -0 0 0 0 0
7 7 11 10 18 18 14 13 11 9 8 6 6 6 5 4 3 3 3 2 2 1 1 1 1 1 1 1 0 0 -0 -0 -0 -1 -0 -0 -1 -1 -1 -0 -0 -0 -0 -0 -0 0 0 1 1
8 10 10 10 10 15 17 16 9 8 7 7 6 5 5 4 3 3 2 2 2 2 1 1 2 2 2 1 1 1 1 1 1 0 0 0 -0 -0 0 0 -0 -0 0 -0 0 0 0 1 1
7 8 10 14 16 12 13 13 7 9 6 5 5 5 4 3 3 3 2 2 2 2 2 2 2 2 2 2 2 2 2 1 0 1 0 1 1 1 1 1 2 1 1 -0 0 1 0 1 1